• în România
  • Lista ţărilor
  • Pe 7 zile
  • Temperatura apei
  • Hartă satelitară
  • Meteo pe hartă
  • Widget-uri
  • user-avatar
    Intrare

    Meteo pe oră la Podvyaze

    Astăzi, 23 Iulie, Luni

    Timp Temperatura Precipitaţii Vânt Presiune Umiditate
    00:00 +18°C° 0 mm 2 m/s 736 mmHg 98%
    01:00 +18°C° 0 mm 2 m/s 736 mmHg 98%
    02:00 +17°C° 0 mm 2 m/s 736 mmHg 98%
    03:00 +17°C° 0 mm 2 m/s 736 mmHg 98%
    04:00 +17°C° 0 mm 2 m/s 736 mmHg 98%
    05:00 +17°C° 0 mm 2 m/s 736 mmHg 97%
    06:00 +19°C° 0,1 mm 2 m/s 736 mmHg 92%
    07:00 +20°C° 0,1 mm 3 m/s 736 mmHg 87%
    08:00 +21°C° 0,1 mm 3 m/s 737 mmHg 82%
    09:00 +22°C° 0,1 mm 3 m/s 737 mmHg 78%
    10:00 +22°C° 0,1 mm 3 m/s 737 mmHg 74%
    11:00 +24°C° 0,1 mm 3 m/s 737 mmHg 70%
    12:00 +24°C° 0,2 mm 3 m/s 737 mmHg 70%
    13:00 +24°C° 0,2 mm 3 m/s 737 mmHg 69%
    14:00 +25°C° 0,2 mm 3 m/s 736 mmHg 68%
    15:00 +24°C° 0,1 mm 3 m/s 736 mmHg 69%
    16:00 +24°C° 0,1 mm 3 m/s 736 mmHg 70%
    17:00 +24°C° 0,1 mm 3 m/s 736 mmHg 70%
    18:00 +23°C° 0,1 mm 2 m/s 737 mmHg 77%
    19:00 +20°C° 0,1 mm 2 m/s 737 mmHg 84%
    20:00 +19°C° 0,1 mm 2 m/s 737 mmHg 92%
    21:00 +18°C° 0 mm 2 m/s 737 mmHg 94%
    22:00 +17°C° 0 mm 2 m/s 737 mmHg 96%
    23:00 +17°C° 0 mm 2 m/s 737 mmHg 98%

    Mâine, 24 Iulie, Marţi

    Timp Temperatura Precipitaţii Vânt Presiune Umiditate
    00:00 +16°C° 0 mm 2 m/s 737 mmHg 98%
    01:00 +16°C° 0 mm 2 m/s 737 mmHg 98%
    02:00 +16°C° 0 mm 2 m/s 737 mmHg 98%
    03:00 +16°C° 0 mm 2 m/s 737 mmHg 98%
    04:00 +16°C° 0 mm 2 m/s 737 mmHg 97%
    05:00 +16°C° 0 mm 2 m/s 738 mmHg 97%
    06:00 +17°C° 0 mm 2 m/s 738 mmHg 92%
    07:00 +18°C° 0 mm 3 m/s 738 mmHg 88%
    08:00 +20°C° 0 mm 3 m/s 738 mmHg 84%
    09:00 +20°C° 0 mm 3 m/s 738 mmHg 80%
    10:00 +21°C° 0 mm 3 m/s 738 mmHg 76%
    11:00 +22°C° 0 mm 3 m/s 738 mmHg 72%
    12:00 +24°C° 0,1 mm 3 m/s 738 mmHg 72%
    13:00 +24°C° 0,1 mm 3 m/s 738 mmHg 71%
    14:00 +25°C° 0,1 mm 3 m/s 738 mmHg 70%
    15:00 +24°C° 0,2 mm 3 m/s 738 mmHg 73%
    16:00 +24°C° 0,2 mm 3 m/s 738 mmHg 75%
    17:00 +24°C° 0,2 mm 3 m/s 738 mmHg 77%
    18:00 +23°C° 0,1 mm 2 m/s 738 mmHg 82%
    19:00 +21°C° 0,1 mm 2 m/s 738 mmHg 88%
    20:00 +20°C° 0,1 mm 2 m/s 738 mmHg 93%
    21:00 +19°C° 0 mm 2 m/s 738 mmHg 94%
    22:00 +19°C° 0 mm 2 m/s 738 mmHg 96%
    23:00 +20°C° 0 mm 1 m/s 738 mmHg 97%

    Poimâine, 25 Iulie, Miercuri

    Timp Temperatura Precipitaţii Vânt Presiune Umiditate
    00:00 +18°C° 0 mm 2 m/s 739 mmHg 97%
    01:00 +18°C° 0 mm 2 m/s 739 mmHg 98%
    02:00 +17°C° 0 mm 2 m/s 739 mmHg 98%
    03:00 +17°C° 0 mm 2 m/s 739 mmHg 98%
    04:00 +17°C° 0 mm 2 m/s 739 mmHg 98%
    05:00 +17°C° 0 mm 2 m/s 739 mmHg 98%
    06:00 +19°C° 0 mm 2 m/s 739 mmHg 93%
    07:00 +21°C° 0 mm 2 m/s 739 mmHg 88%
    08:00 +23°C° 0 mm 2 m/s 740 mmHg 83%
    09:00 +25°C° 0 mm 2 m/s 740 mmHg 77%
    10:00 +26°C° 0 mm 2 m/s 740 mmHg 70%
    11:00 +28°C° 0 mm 3 m/s 740 mmHg 64%
    12:00 +28°C° 0,7 mm 3 m/s 740 mmHg 67%
    13:00 +27°C° 0,7 mm 3 m/s 740 mmHg 71%
    14:00 +27°C° 0,7 mm 3 m/s 739 mmHg 75%
    15:00 +27°C° 0,4 mm 3 m/s 740 mmHg 76%
    16:00 +26°C° 0,4 mm 3 m/s 740 mmHg 77%
    17:00 +26°C° 0,4 mm 3 m/s 740 mmHg 77%
    18:00 +24°C° 0 mm 2 m/s 740 mmHg 81%
    19:00 +23°C° 0 mm 2 m/s 740 mmHg 85%
    20:00 +21°C° 0 mm 2 m/s 740 mmHg 89%
    21:00 +20°C° 0 mm 2 m/s 741 mmHg 90%
    22:00 +19°C° 0 mm 2 m/s 741 mmHg 91%
    23:00 +18°C° 0 mm 2 m/s 741 mmHg 91%

    26 Iulie, Joi

    Timp Temperatura Precipitaţii Vânt Presiune Umiditate
    00:00 +17°C° 0 mm 2 m/s 741 mmHg 91%
    01:00 +17°C° 0 mm 2 m/s 741 mmHg 90%
    02:00 +16°C° 0 mm 2 m/s 741 mmHg 89%
    03:00 +16°C° 0 mm 3 m/s 741 mmHg 87%
    04:00 +17°C° 0 mm 3 m/s 741 mmHg 85%
    05:00 +17°C° 0 mm 3 m/s 741 mmHg 84%
    06:00 +19°C° 0 mm 3 m/s 741 mmHg 78%
    07:00 +20°C° 0 mm 3 m/s 741 mmHg 73%
    08:00 +22°C° 0 mm 4 m/s 741 mmHg 68%
    09:00 +25°C° 0 mm 4 m/s 741 mmHg 63%
    10:00 +27°C° 0 mm 4 m/s 741 mmHg 58%
    11:00 +28°C° 0 mm 4 m/s 741 mmHg 53%
    12:00 +29°C° 0 mm 4 m/s 741 mmHg 51%
    13:00 +29°C° 0 mm 4 m/s 741 mmHg 50%
    14:00 +30°C° 0 mm 4 m/s 741 mmHg 48%
    15:00 +30°C° 0 mm 4 m/s 741 mmHg 51%
    16:00 +29°C° 0 mm 4 m/s 741 mmHg 54%
    17:00 +29°C° 0 mm 3 m/s 741 mmHg 57%
    18:00 +27°C° 0,3 mm 3 m/s 741 mmHg 66%
    19:00 +25°C° 0,3 mm 3 m/s 741 mmHg 75%
    20:00 +22°C° 0,3 mm 3 m/s 741 mmHg 84%
    21:00 +21°C° 0,1 mm 3 m/s 741 mmHg 85%
    22:00 +21°C° 0,1 mm 3 m/s 741 mmHg 86%
    23:00 +20°C° 0,1 mm 3 m/s 742 mmHg 87%

    27 Iulie, Vineri

    Timp Temperatura Precipitaţii Vânt Presiune Umiditate
    00:00 +20°C° 0,1 mm 3 m/s 742 mmHg 89%
    01:00 +19°C° 0,1 mm 2 m/s 742 mmHg 91%
    02:00 +19°C° 0,1 mm 2 m/s 742 mmHg 93%
    03:00 +19°C° 0 mm 2 m/s 742 mmHg 94%
    04:00 +18°C° 0 mm 2 m/s 742 mmHg 94%
    05:00 +18°C° 0 mm 2 m/s 742 mmHg 95%
    06:00 +20°C° 0 mm 2 m/s 742 mmHg 90%
    07:00 +21°C° 0 mm 2 m/s 743 mmHg 85%
    08:00 +24°C° 0 mm 2 m/s 743 mmHg 80%
    09:00 +25°C° 0 mm 3 m/s 743 mmHg 74%
    10:00 +27°C° 0 mm 3 m/s 743 mmHg 69%
    11:00 +28°C° 0 mm 3 m/s 743 mmHg 64%
    12:00 +29°C° 0 mm 3 m/s 743 mmHg 60%
    13:00 +29°C° 0 mm 4 m/s 743 mmHg 55%
    14:00 +30°C° 0 mm 4 m/s 743 mmHg 51%
    15:00 +29°C° 0 mm 4 m/s 743 mmHg 54%
    16:00 +29°C° 0 mm 4 m/s 743 mmHg 57%
    17:00 +29°C° 0 mm 3 m/s 743 mmHg 60%
    18:00 +27°C° 0 mm 3 m/s 743 mmHg 66%
    19:00 +26°C° 0 mm 3 m/s 744 mmHg 72%
    20:00 +24°C° 0 mm 2 m/s 744 mmHg 78%
    21:00 +24°C° 0 mm 2 m/s 744 mmHg 80%
    22:00 +23°C° 0 mm 2 m/s 744 mmHg 82%
    23:00 +21°C° 0 mm 2 m/s 744 mmHg 85%

    28 Iulie, Sâmbătă

    Timp Temperatura Precipitaţii Vânt Presiune Umiditate
    00:00 +20°C° 0,1 mm 2 m/s 744 mmHg 87%
    01:00 +20°C° 0,1 mm 2 m/s 744 mmHg 89%
    02:00 +19°C° 0,1 mm 2 m/s 744 mmHg 91%
    03:00 +19°C° 0 mm 2 m/s 745 mmHg 91%
    04:00 +19°C° 0 mm 2 m/s 745 mmHg 91%
    05:00 +19°C° 0 mm 2 m/s 745 mmHg 91%
    06:00 +21°C° 0 mm 2 m/s 745 mmHg 84%
    07:00 +24°C° 0 mm 2 m/s 745 mmHg 77%
    08:00 +26°C° 0 mm 2 m/s 745 mmHg 69%
    09:00 +27°C° 0 mm 3 m/s 745 mmHg 62%
    10:00 +29°C° 0 mm 3 m/s 745 mmHg 54%
    11:00 +30°C° 0 mm 3 m/s 745 mmHg 47%
    12:00 +31°C° 0 mm 3 m/s 745 mmHg 45%
    13:00 +31°C° 0 mm 3 m/s 745 mmHg 44%
    14:00 +31°C° 0 mm 3 m/s 745 mmHg 43%
    15:00 +31°C° 0 mm 3 m/s 745 mmHg 47%
    16:00 +30°C° 0 mm 2 m/s 745 mmHg 51%
    17:00 +29°C° 0 mm 2 m/s 745 mmHg 55%
    18:00 +28°C° 0 mm 2 m/s 745 mmHg 62%
    19:00 +26°C° 0 mm 2 m/s 745 mmHg 69%
    20:00 +24°C° 0 mm 2 m/s 745 mmHg 76%
    21:00 +23°C° 0 mm 1 m/s 745 mmHg 78%
    22:00 +22°C° 0 mm 1 m/s 745 mmHg 80%
    23:00 +21°C° 0 mm 1 m/s 745 mmHg 82%
    Arată mai mult